FW5301 Weather Reports


time (UTC)temp
F
wind
direction
speed
knots
gust
knots
rain 1hr
in
rain 24hr
in
rain mn
in
humidity
%
barometer
mb
20260503194506 50 302 0.0 0.9 0.00 0.00 0.00 50 1019.1
20260503193055 51 302 0.0 1.7 0.00 0.00 0.00 48 1019.2
20260503191518 52 302 0.0 0.9 0.00 0.00 0.00 45 1019.2
20260503190050 52 313 0.0 0.9 0.00 0.00 0.00 45 1019.2
20260503184530 54 314 0.0 0.9 0.00 0.00 0.00 43 1019.2
20260503183101 56 314 0.0 0.9 0.00 0.00 0.00 40 1019.1
20260503181529 56 314 0.0 0.9 0.00 0.00 0.00 41 1018.9
20260503180006 57 314 0.0 2.6 0.00 0.00 0.00 40 1019.0
20260503174554 55 309 0.0 0.0 0.00 0.00 0.00 44 1018.7
20260503173035 57 309 0.0 0.9 0.00 0.00 0.00 41 1018.6
20260503171503 60 309 0.0 0.9 0.00 0.00 0.00 37 1018.8
20260503081536 60 60 0.9 2.6 0.00 0.00 0.00 38 1023.3
20260503080106 58 39 0.0 3.5 0.00 0.00 0.00 39 1023.5
20260503071538 54 77 1.7 3.5 0.00 0.00 0.00 46 1023.4
20260503054605 48 22 1.7 3.5 0.00 0.00 0.00 51 1023.5
20260503054507 48 65 1.7 3.5 0.00 0.00 0.00 51 1023.4
20260503053032 48 58 0.9 3.5 0.00 0.00 0.00 50 1023.4
20260503051517 48 37 0.0 3.5 0.00 0.00 0.00 52 1023.4
20260503050043 48 39 0.0 1.7 0.00 0.00 0.00 53 1023.5
20260503044527 48 27 0.0 0.0 0.00 0.00 0.00 52 1023.4
20260503043101 49 24 0.0 0.0 0.00 0.00 0.00 50 1023.3
20260503043002 49 24 0.0 0.0 0.00 0.00 0.00 50 1023.3
20260503041543 49 24 0.0 0.0 0.00 0.00 0.00 49 1023.2
20260503040014 44 303 0.0 0.0 0.00 0.00 0.00 61 1023.1
20260503034602 41 303 0.0 0.0 0.00 0.00 0.00 62 1023.0
20260503033038 39 303 0.0 0.0 0.00 0.00 0.00 64 1022.9
20260503031512 39 303 0.0 0.0 0.00 0.00 0.00 63 1022.9
20260503030112 39 303 0.0 0.0 0.00 0.00 0.00 62 1022.7
20260503024535 39 303 0.0 0.0 0.00 0.00 0.00 63 1022.5
20260503023026 39 303 0.0 0.0 0.00 0.00 0.00 63 1022.6
20260503021506 40 303 0.0 0.0 0.00 0.00 0.00 61 1022.5
20260503020052 40 303 0.0 0.0 0.00 0.00 0.00 61 1022.5
20260503014527 40 303 0.0 0.0 0.00 0.00 0.00 61 1022.5
20260503013014 40 303 0.0 0.0 0.00 0.00 0.00 62 1022.6
20260503011552 39 303 0.0 0.0 0.00 0.00 0.00 62 1022.6
20260503010022 40 303 0.0 0.0 0.00 0.00 0.00 60 1022.6
20260503004559 40 303 0.0 0.0 0.00 0.00 0.00 60 1022.5
20260503003047 40 303 0.0 0.0 0.00 0.00 0.00 60 1022.7
20260503001516 41 303 0.0 0.0 0.00 0.00 0.00 58 1022.5
20260503000051 42 303 0.0 0.0 0.00 0.00 0.00 57 1022.5
20260502234516 42 303 0.0 0.0 0.00 0.00 0.00 56 1022.8
20260502233056 43 303 0.0 0.0 0.00 0.00 0.00 54 1022.8
20260502231537 44 303 0.0 0.0 0.00 0.00 0.00 53 1022.7
20260502230014 44 303 0.0 0.0 0.00 0.00 0.00 54 1022.6
20260502224551 44 303 0.0 0.0 0.00 0.00 0.00 54 1022.7
20260502223038 43 303 0.0 0.0 0.00 0.00 0.00 56 1022.9
20260502221515 43 303 0.0 0.0 0.00 0.00 0.00 56 1023.0
20260502220056 43 303 0.0 0.0 0.00 0.00 0.00 55 1023.0
20260502214547 44 303 0.0 0.0 0.00 0.00 0.00 55 1023.0
20260502213033 44 303 0.0 0.0 0.00 0.00 0.00 54 1023.2
20260502211504 45 303 0.0 0.0 0.00 0.00 0.00 52 1023.2
20260502210036 45 303 0.0 1.7 0.00 0.00 0.00 53 1023.3
20260502204514 45 303 0.0 0.9 0.00 0.00 0.00 54 1023.2
20260502203106 45 303 0.0 0.0 0.00 0.00 0.00 53 1023.2
20260502201525 46 303 0.0 0.9 0.00 0.00 0.00 52 1023.2
20260502200054 46 311 0.0 0.9 0.00 0.00 0.00 53 1023.1